Weather History for Jackson, WY

Change the Weather History Date:

Monday, September 2, 2013

  Actual Average Record
Temperature  
Mean Temperature 56 °F -  
Max Temperature 60 °F 74 °F 86 °F (1990)
Min Temperature 53 °F 36 °F 26 °F (1996)
Degree Days  
Heating Degree Days 8    
Growing Degree Days 6 (Base 50)    
Moisture  
Dew Point 48 °F    
Average Humidity 76    
Maximum Humidity 100    
Minimum Humidity 45    
Precipitation  
Precipitation 0.00 in - - ()
Sea Level Pressure  
Sea Level Pressure 30.21 in    
Wind  
Wind Speed 4 mph (NNW)    
Max Wind Speed 16 mph    
Max Gust Speed -    
Visibility 10 miles    
Events Rain    
Averages and records for this station are not official NWS values.
T = Trace of Precipitation, MM = Missing Value Source: NWS Daily Summary

Daily Weather History Graph

Daily Weather History Graph

Search for Another Location

Airport:

Trip Planner

Search our weather history database for the weather conditions in past years. The results will help you decide how hot, cold, wet, or windy it might be!

Date:

Astronomy

Sep. 02, 2013 Rise Set
Actual Time 6:48 AM MDT 7:56 PM MDT
Civil Twilight 6:18 AM MDT 8:25 PM MDT
Nautical Twilight 5:43 AM MDT 9:00 PM MDT
Astronomical Twilight 5:06 AM MDT 9:37 PM MDT
Moon 4:05 AM MDT (9/2) 6:13 PM MDT (9/2)
Length of Visible Light 14h 06m
Length of Day
13h 07m
Waning Crescent, 7% of the Moon is Illuminated
Sep 2
Waning Crescent
Sep 5
New
Sep 12
First Quarter
Sep 19
Full
Sep 26
Last Quarter

Hourly Weather History & Observations

Time (MDT) Temp. Dew Point Humidity Pressure Visibility Wind Dir Wind Speed Gust Speed Precip Events Conditions
12:15 AM 57.2 °F 37.4 °F 48% 30.19 in 10.0 mi North 10.4 mph - N/A   Clear
12:35 AM 59.0 °F 37.4 °F 45% 30.18 in 10.0 mi NE 3.5 mph - N/A   Clear
1:15 AM 57.2 °F 37.4 °F 48% 30.19 in 10.0 mi West 3.5 mph - N/A   Clear
1:35 AM 55.4 °F 39.2 °F 54% 30.20 in 10.0 mi West 3.5 mph - N/A   Clear
1:55 AM 57.2 °F 39.2 °F 51% 30.20 in 10.0 mi North 6.9 mph - N/A   Clear
2:15 AM 55.4 °F 37.4 °F 51% 30.19 in 10.0 mi NNE 8.1 mph - N/A   Clear
2:55 AM 55.4 °F 37.4 °F 51% 30.20 in 10.0 mi WNW 6.9 mph - N/A   Clear
3:15 AM 53.6 °F 39.2 °F 58% 30.21 in 10.0 mi West 5.8 mph - N/A   Mostly Cloudy
3:35 AM 55.4 °F 39.2 °F 54% 30.19 in 10.0 mi North 16.1 mph - N/A   Overcast
3:55 AM 57.2 °F 37.4 °F 48% 30.19 in 10.0 mi NE 6.9 mph - N/A   Mostly Cloudy
4:15 AM 57.2 °F 37.4 °F 48% 30.19 in 10.0 mi NNE 4.6 mph - N/A   Clear
4:35 AM 57.2 °F 37.4 °F 48% 30.19 in 10.0 mi West 4.6 mph - N/A   Clear
4:55 AM 55.4 °F 41.0 °F 58% 30.18 in 10.0 mi North 4.6 mph - N/A   Clear
5:15 AM 55.4 °F 39.2 °F 54% 30.19 in 10.0 mi North 3.5 mph - N/A   Clear
5:35 AM 55.4 °F 39.2 °F 54% 30.19 in 10.0 mi East 5.8 mph - N/A   Clear
5:55 AM 57.2 °F 39.2 °F 51% 30.19 in 10.0 mi NE 5.8 mph - N/A   Clear
6:35 AM 55.4 °F 41.0 °F 58% 30.19 in 10.0 mi Calm Calm - N/A   Overcast
6:51 AM 53.6 °F 42.8 °F 67% 30.19 in 8.0 mi NNW 6.9 mph - N/A   Smoke
7:51 AM 55.4 °F 42.8 °F 63% 30.20 in 8.0 mi Calm Calm - N/A   Smoke
8:53 AM 53.6 °F 46.4 °F 77% 30.24 in 7.0 mi Calm Calm - N/A Rain Light Rain
9:51 AM 53.6 °F 48.2 °F 82% 30.25 in 8.0 mi Calm Calm - N/A Rain Light Rain
10:51 AM 53.6 °F 51.8 °F 94% 30.24 in 10.0 mi North 3.5 mph - N/A   Overcast
11:52 AM 53.6 °F 53.6 °F 100% 30.25 in 9.0 mi NNW 3.5 mph - N/A Rain Light Rain Showers
12:53 PM 55.4 °F 53.6 °F 94% 30.25 in 9.0 mi Calm Calm - N/A   Mostly Cloudy
1:51 PM 60.8 °F 55.4 °F 82% 30.24 in 10.0 mi Calm Calm - N/A   Overcast
2:52 PM 60.8 °F 57.2 °F 88% 30.23 in 10.0 mi Calm Calm - N/A   Mostly Cloudy
3:51 PM 60.8 °F 57.2 °F 88% 30.22 in 10.0 mi Calm Calm - N/A   Mostly Cloudy
4:59 PM 60.8 °F 57.2 °F 88% 30.21 in 10.0 mi Calm Calm - N/A   Overcast
5:53 PM 59.0 °F 57.2 °F 94% 30.21 in 10.0 mi WSW 3.5 mph - N/A   Overcast
6:51 PM 60.8 °F 57.2 °F 88% 30.20 in 10.0 mi Calm Calm - N/A   Overcast
7:55 PM 57.2 °F 57.2 °F 100% 30.20 in 10.0 mi Calm Calm - N/A   Overcast
8:51 PM 57.2 °F 57.2 °F 100% 30.21 in 10.0 mi Calm Calm - N/A   Overcast
8:55 PM 57.2 °F 57.2 °F 100% 30.21 in 10.0 mi WSW 3.5 mph - N/A   Overcast
9:15 PM 57.2 °F 57.2 °F 100% 30.22 in 10.0 mi Calm Calm - N/A   Overcast
9:35 PM 57.2 °F 57.2 °F 100% 30.22 in 10.0 mi Calm Calm - N/A   Overcast
9:55 PM 57.2 °F 57.2 °F 100% 30.22 in 9.0 mi Calm Calm - N/A   Overcast
10:15 PM 57.2 °F 57.2 °F 100% 30.22 in 9.0 mi Calm Calm - N/A   Overcast
10:35 PM 57.2 °F 57.2 °F 100% 30.22 in 10.0 mi Calm Calm - N/A   Overcast
10:55 PM 57.2 °F 57.2 °F 100% 30.22 in 8.0 mi Calm Calm - N/A   Overcast
11:15 PM 57.2 °F 57.2 °F 100% 30.23 in 5.0 mi Calm Calm - N/A   Overcast
11:35 PM 57.2 °F 55.4 °F 94% 30.23 in 8.0 mi Calm Calm - N/A   Overcast
11:55 PM 57.2 °F 57.2 °F 100% 30.23 in 10.0 mi Calm Calm - N/A   Overcast